Weather History for Jordan, MT

Change the Weather History Date:

Friday, November 30, 2012

  Actual Average Record
Temperature  
Mean Temperature 37 °F 23 °F  
Max Temperature 50 °F 36 °F 63 °F (1969)
Min Temperature 23 °F 11 °F -25 °F (1975)
Degree Days  
Heating Degree Days 28 42  
Month to date heating degree days 953 1047  
Since 1 July heating degree days 1770 2018  
Cooling Degree Days 0 0  
Month to date cooling degree days 0 0  
Year to date cooling degree days 728 421  
Moisture  
Dew Point 29 °F    
Average Humidity 71    
Maximum Humidity 92    
Minimum Humidity 50    
Precipitation  
Precipitation 0.00 in 0.01 in 0.50 in (1905)
Month to date precipitation 0.74 0.36  
Year to date precipitation 7.69 12.38  
Snow  
Snow 0.00 in - - ()
Month to date snowfall 0.0  
Since 1 July snowfall 0.0  
Since 1 September snowfall 0.0  
Snow Depth 0.00 in    
Sea Level Pressure  
Sea Level Pressure 29.74 in    
Wind  
Wind Speed 2 mph (WSW)    
Max Wind Speed 15 mph    
Max Gust Speed 18 mph    
T = Trace of Precipitation, MM = Missing Value Source: NWS Daily Summary

Daily Weather History Graph

Daily Weather History Graph

Search for Another Location

Airport:

Trip Planner

Search our weather history database for the weather conditions in past years. The results will help you decide how hot, cold, wet, or windy it might be!

Date:

Astronomy

Nov. 30, 2012 Rise Set
Actual Time 7:33 AM MST 4:19 PM MST
Civil Twilight 6:58 AM MST 4:54 PM MST
Nautical Twilight 6:20 AM MST 5:32 PM MST
Astronomical Twilight 5:43 AM MST 6:09 PM MST
Moon 6:18 PM MST (11/30) 9:06 AM MST (11/30)
Length of Visible Light 9h 55m
Length of Day
8h 46m
Waning Gibbous, 96% of the Moon is Illuminated
Nov 30
Waning Gibbous
Dec 6
Last Quarter
Dec 13
New
Dec 19
First Quarter
Dec 28
Full

Hourly Weather History & Observations

Time (MST) Temp. Windchill Dew Point Humidity Pressure Visibility Wind Dir Wind Speed Gust Speed Precip Events Conditions
12:48 AM 24.1 °F - 21.0 °F 88% 29.88 in - Calm Calm - N/A   Unknown
1:48 AM 23.0 °F - 19.9 °F 88% 29.87 in - Calm Calm - N/A   Unknown
2:48 AM 28.0 °F - 25.0 °F 88% 29.86 in - Calm Calm - N/A   Unknown
3:48 AM 30.0 °F 26.5 °F 28.0 °F 92% 29.85 in - NNW 3.5 mph - N/A   Unknown
4:48 AM 34.0 °F - 28.9 °F 82% 29.82 in - Calm Calm - N/A   Unknown
5:48 AM 27.0 °F - 25.0 °F 92% 29.83 in - Calm Calm - N/A   Unknown
6:48 AM 25.0 °F - 23.0 °F 92% 29.81 in - Calm Calm - N/A   Unknown
7:48 AM 25.0 °F - 23.0 °F 92% 29.82 in - Calm Calm - N/A   Unknown
8:48 AM 28.0 °F - 26.1 °F 92% 29.81 in - Calm Calm - N/A   Unknown
9:48 AM 36.0 °F 33.3 °F 32.0 °F 86% 29.78 in - SW 3.5 mph - N/A   Unknown
10:48 AM 37.9 °F - 34.0 °F 86% 29.74 in - Calm Calm - N/A   Unknown
11:48 AM 46.0 °F - 35.1 °F 66% 29.69 in - Calm Calm - N/A   Unknown
12:48 PM 48.0 °F - 33.1 °F 56% 29.66 in - Calm Calm - N/A   Unknown
1:48 PM 48.0 °F - 34.0 °F 58% 29.63 in - Calm Calm - N/A   Unknown
2:48 PM 48.9 °F - 30.0 °F 48% 29.62 in - SSW 4.6 mph - N/A   Unknown
3:48 PM 46.0 °F - 32.0 °F 58% 29.64 in - Calm Calm - N/A   Unknown
4:48 PM 46.0 °F - 30.9 °F 56% 29.64 in - Calm Calm - N/A   Unknown
5:48 PM 45.0 °F 38.5 °F 33.1 °F 63% 29.65 in - SSW 13.8 mph 18.4 mph N/A   Unknown
6:48 PM 46.0 °F 41.9 °F 34.0 °F 63% 29.65 in - WSW 8.1 mph - N/A   Unknown
7:48 PM 43.0 °F - 34.0 °F 71% 29.65 in - Calm Calm - N/A   Unknown
8:48 PM 34.0 °F - 30.0 °F 85% 29.68 in - Calm Calm - N/A   Unknown
9:48 PM 34.0 °F - 30.9 °F 89% 29.69 in - Calm Calm - N/A   Unknown
10:48 PM 35.1 °F 29.3 °F 32.0 °F 89% 29.69 in - WNW 6.9 mph - N/A   Unknown
11:48 PM 36.0 °F 31.1 °F 32.0 °F 86% 29.68 in - WNW 5.8 mph - N/A   Unknown